N3OUC-2 Weather Reports


time (UTC)temp
C
wind
direction
speed
KPH
gust
KPH
rain 1hr
cm
rain 24hr
cm
rain mn
cm
humidity
%
barometer
mb
20260506202005 17 197 9.7 22.5 0.00 0.33 0.33 90 1006.9
20260506201004 17 202 14.5 22.5 0.00 0.33 0.33 90 1006.8
20260506200005 16 209 9.7 19.3 0.00 0.33 0.33 90 1006.8
20260506195004 16 218 11.3 25.7 0.00 0.33 0.33 90 1006.9
20260506194004 16 209 12.9 29.0 0.00 0.33 0.33 90 1006.9
20260506192005 16 218 16.1 32.2 0.00 0.33 0.33 93 1007.0
20260506191005 16 189 16.1 29.0 0.03 0.33 0.33 94 1007.2
20260506185005 15 169 8.0 24.1 0.03 0.33 0.33 94 1007.4
20260506184004 15 189 9.7 22.5 0.03 0.33 0.33 94 1007.6
20260506183005 15 204 11.3 32.2 0.03 0.33 0.33 94 1007.7
20260506182004 15 182 9.7 27.4 0.05 0.33 0.33 94 1007.7
20260506181005 15 189 11.3 22.5 0.03 0.30 0.30 94 1007.6
20260506180005 15 196 12.9 29.0 0.03 0.30 0.30 94 1007.8
20260506175005 15 207 9.7 19.3 0.03 0.30 0.30 94 1007.8
20260506174004 15 200 9.7 24.1 0.03 0.30 0.30 94 1007.8
20260506173005 15 181 6.4 24.1 0.03 0.30 0.30 94 1007.5
20260506172004 15 176 11.3 32.2 0.00 0.25 0.25 94 1007.6
20260506171004 15 173 16.1 33.8 0.03 0.25 0.25 94 1007.8
20260506165005 15 171 14.5 32.2 0.05 0.25 0.25 94 1008.0
20260506164004 15 185 9.7 24.1 0.08 0.25 0.25 94 1008.0
20260506162005 15 171 16.1 32.2 0.23 0.25 0.25 94 1007.5
20260506160004 15 184 11.3 32.2 0.20 0.23 0.23 94 1008.1
20260506155004 15 164 11.3 19.3 0.18 0.20 0.20 94 1008.5
20260506154005 15 171 12.9 32.2 0.15 0.18 0.18 94 1008.8
20260506153005 15 170 14.5 37.0 0.10 0.13 0.13 93 1008.9
20260506152005 15 175 16.1 35.4 0.00 0.03 0.03 92 1009.1
20260506151004 16 153 9.7 25.7 0.00 0.03 0.03 92 1009.1
20260506150005 16 171 11.3 33.8 0.00 0.03 0.03 92 1008.9
20260506140005 16 188 8.0 19.3 0.03 0.03 0.03 87 1008.9
20260506134009 16 181 9.7 22.5 0.03 0.03 0.03 87 1008.8
20260506132005 17 186 4.8 22.5 0.00 0.00 0.00 84 1009.2
20260506131004 17 180 11.3 24.1 0.00 0.00 0.00 83 1009.1
20260506130005 17 185 11.3 25.7 0.00 0.00 0.00 83 1009.2
20260506124004 17 190 9.7 24.1 0.00 0.00 0.00 79 1009.2
20260506123004 17 192 14.5 25.7 0.00 0.00 0.00 77 1009.0
20260506122004 17 194 9.7 32.2 0.00 0.00 0.00 78 1008.8
20260506120004 17 174 11.3 38.6 0.00 0.00 0.00 77 1008.7
20260506115005 17 166 14.5 29.0 0.00 0.00 0.00 77 1008.7
20260506114005 17 171 14.5 27.4 0.00 0.00 0.00 77 1008.5
20260506113005 17 186 19.3 32.2 0.00 0.00 0.00 77 1008.5
20260506112004 17 175 14.5 33.8 0.00 0.00 0.00 76 1008.5
20260506111005 17 172 16.1 35.4 0.00 0.00 0.00 76 1008.5
20260506105004 17 156 19.3 32.2 0.00 0.00 0.00 76 1008.1
20260506103004 17 171 16.1 32.2 0.00 0.00 0.00 76 1008.0
20260506102004 17 169 14.5 33.8 0.00 0.00 0.00 76 1008.0
20260506100004 17 173 12.9 25.7 0.00 0.00 0.00 76 1008.1
20260506095004 17 175 12.9 32.2 0.00 0.00 0.00 76 1008.2
20260506093004 17 175 16.1 40.2 0.00 0.00 0.00 75 1008.0
20260506091004 17 172 16.1 29.0 0.00 0.00 0.00 74 1008.0
20260506090004 18 169 12.9 29.0 0.00 0.03 0.00 74 1008.1
20260506085004 18 179 9.7 27.4 0.00 0.03 0.00 73 1008.2
20260506084004 18 169 12.9 32.2 0.00 0.03 0.00 73 1008.3
20260506083004 18 171 14.5 35.4 0.00 0.03 0.00 72 1008.2
20260506082004 18 154 11.3 41.8 0.00 0.03 0.00 72 1008.2
20260506081005 18 158 12.9 32.2 0.00 0.03 0.00 71 1008.3
20260506073003 17 160 11.3 29.0 0.00 0.03 0.00 69 1008.4
20260506072004 17 158 12.9 27.4 0.00 0.03 0.00 68 1008.5
20260506071004 18 165 14.5 29.0 0.00 0.03 0.00 68 1008.6
20260506062005 18 167 14.5 32.2 0.00 0.03 0.00 65 1009.1
20260506061005 18 171 11.3 22.5 0.00 0.03 0.00 65 1009.2
20260506051005 18 179 11.3 22.5 0.00 0.03 0.00 63 1009.7
20260506045005 18 173 11.3 22.5 0.00 0.03 0.00 62 1009.7
20260506044005 18 171 11.3 25.7 0.00 0.03 0.00 62 1009.7
20260506043005 18 173 12.9 22.5 0.00 0.03 0.00 61 1009.7
20260506042006 18 180 12.9 25.7 0.00 0.03 0.00 61 1009.7
20260506041006 18 161 12.9 24.1 0.00 0.03 0.00 60 1009.6
20260506040005 18 172 11.3 27.4 0.00 0.03 0.00 60 1009.6
20260506035005 19 176 11.3 24.1 0.00 0.03 0.03 59 1009.6
20260506034005 19 174 11.3 22.5 0.00 0.03 0.03 58 1009.6
20260506032005 20 185 12.9 27.4 0.00 0.03 0.03 56 1009.4
20260506031006 20 172 12.9 22.5 0.00 0.03 0.03 55 1009.5
20260506030006 20 180 11.3 25.7 0.00 0.03 0.03 55 1009.5
20260506025005 20 155 9.7 25.7 0.00 0.03 0.03 54 1009.4
20260506024005 20 180 14.5 25.7 0.00 0.03 0.03 53 1009.4
20260506023006 21 158 11.3 29.0 0.00 0.03 0.03 53 1009.5
20260506022005 21 182 12.9 29.0 0.00 0.03 0.03 51 1009.6
20260506020005 21 178 17.7 24.1 0.00 0.03 0.03 50 1009.5
20260506015006 21 177 11.3 27.4 0.00 0.03 0.03 49 1009.4
20260506014005 21 169 9.7 29.0 0.00 0.03 0.03 48 1009.4
20260506011005 22 179 9.7 22.5 0.00 0.03 0.03 46 1009.0
20260506010005 22 165 12.9 33.8 0.00 0.03 0.03 45 1008.9
20260506005006 22 171 11.3 25.7 0.00 0.03 0.03 45 1008.8
20260506004005 22 172 11.3 24.1 0.00 0.03 0.03 45 1008.8
20260506003005 22 180 12.9 37.0 0.00 0.03 0.03 45 1008.6
20260506002005 22 186 16.1 32.2 0.00 0.03 0.03 44 1008.5
20260506001005 23 174 11.3 32.2 0.00 0.03 0.03 44 1008.4
20260506000005 23 173 11.3 27.4 0.00 0.03 0.03 45 1008.3
20260505235005 23 164 14.5 32.2 0.00 0.03 0.03 44 1008.3
20260505234005 23 165 14.5 25.7 0.00 0.03 0.03 43 1008.3
20260505233005 23 168 11.3 29.0 0.00 0.03 0.03 42 1008.2
20260505232005 24 182 16.1 33.8 0.00 0.03 0.03 41 1008.2
20260505231005 24 181 16.1 32.2 0.00 0.03 0.03 42 1008.1
20260505230005 24 207 14.5 22.5 0.00 0.03 0.03 41 1008.1
20260505225005 25 196 11.3 32.2 0.00 0.03 0.03 40 1008.1
20260505224005 25 184 19.3 38.6 0.00 0.03 0.03 39 1007.9
20260505223005 25 211 16.1 32.2 0.00 0.03 0.03 39 1007.9
20260505222004 25 208 16.1 35.4 0.00 0.03 0.03 39 1007.9
20260505221005 25 201 11.3 35.4 0.00 0.03 0.03 40 1007.9
20260505220004 25 191 24.1 48.3 0.00 0.03 0.03 39 1007.9
20260505215005 26 186 11.3 38.6 0.00 0.03 0.03 40 1007.8
20260505214004 26 187 9.7 33.8 0.00 0.03 0.03 38 1007.9
20260505213004 26 169 9.7 46.7 0.00 0.03 0.03 40 1007.7
20260505211005 26 175 8.0 32.2 0.00 0.03 0.03 41 1007.6
20260505210004 26 190 17.7 33.8 0.00 0.03 0.03 39 1007.7
20260505205005 26 185 19.3 35.4 0.00 0.03 0.03 39 1007.6
20260505204004 26 177 16.1 40.2 0.00 0.03 0.03 41 1007.7
20260505203005 26 184 20.9 37.0 0.00 0.03 0.03 37 1007.8